Wetbulb
46.94 43.51 42.01 44.44 43.75 44.80 43.89 42.48 42.26 45.33 49.07 45.86 45.66 45.08 47.73 49.33 47.81 49.68 59.20 59.87 62.17 65.01 67.52 68.36 69.13 69.47 68.98 70.08 69.93 70.55 70.55 71.36 71.12 70.52 70.64 70.41 69.95 70.24 69.84 68.89 70.84 70.75 69.69 69.73
44.23 41.30 46.36 47.65 46.61 44.96 43.84 41.65 42.54 45.78 48.50 45.10 44.35 45.38 46.96 48.01 48.10 49.43 51.07 58.85 61.70 63.85 65.01 66.61 67.72 68.78 68.78 68.37 69.56 70.57 70.85 71.23 71.19 70.90 71.18 71.61 70.92 70.59 70.74 70.62 69.54 70.42 69.94 67.77
42.78 46.54 50.43 48.77 46.92 45.09 41.95 41.75 43.13 43.53 45.23 43.93 43.72 42.74 44.11 48.12 49.29 52.00 52.98 53.51 55.29 59.35 62.60 64.66 65.82 68.02 69.20 68.51 69.08 70.49 70.85 71.37 71.40 71.38 70.89 70.27 69.83 69.41 68.92 69.69 70.33 70.33 70.65 69.76
44.25 48.12 48.71 47.07 45.89 45.33 37.87 46.01 46.35 44.46 40.99 37.41 42.57 35.42 41.69 44.79 46.98 50.91 51.73 56.22 56.85 58.47 60.81 62.06 60.11 66.15 68.63 68.85 69.49 70.47 71.25 71.43 71.48 71.37 70.57 70.30 69.82 69.34 70.40 70.52 70.15 70.49 71.35 70.99
45.43 46.42 46.73 46.31 47.42 47.00 44.65 46.64 44.54 44.16 39.53 37.06 39.49 36.63 40.40 47.74 47.85 49.74 52.51 55.06 56.98 58.81 60.10 60.29 61.48 64.80 67.07 69.04 69.24 69.11 71.04 71.20 71.40 71.35 71.24 70.35 69.89 70.35 70.66 70.62 68.62 70.16 71.02 71.79
46.69 49.80 49.20 48.13 50.08 48.72 49.07 45.85 42.87 39.54 37.15 34.38 37.36 37.41 37.85 45.59 47.79 50.60 53.89 55.29 56.45 57.51 59.00 60.46 62.90 65.07 65.62 66.79 69.25 69.07 69.48 70.54 71.33 71.45 71.29 70.56 69.96 69.45 68.43 68.53 68.11 69.03 70.77 71.63
45.34 47.32 49.32 50.64 47.14 48.35 46.33 40.04 34.48 34.03 33.59 33.71 37.97 37.03 40.59 49.22 53.51 54.00 53.81 54.68 56.23 56.96 57.48 59.09 60.90 62.50 64.67 64.67 67.22 68.94 68.60 68.96 70.74 71.08 71.33 70.72 70.55 69.72 68.13 68.46 69.15 68.12 69.89 70.63
39.80 40.48 46.99 50.66 46.92 44.12 43.28 39.40 35.07 30.01 31.02 35.56 38.38 36.19 44.11 53.35 55.33 55.88 55.75 55.95 57.04 57.48 58.43 58.58 60.03 61.60 63.33 64.06 66.66 68.82 68.35 68.69 70.53 70.72 71.19 71.32 70.80 70.82 69.90 68.88 69.30 69.06 69.67 70.75
38.91 41.51 48.89 50.50 49.67 47.67 43.69 39.69 42.17 35.73 32.78 33.25 35.82 42.58 50.30 53.12 52.64 54.41 54.38 56.38 57.02 57.57 58.81 60.30 60.70 61.21 62.04 63.63 64.83 68.70 69.19 69.44 70.85 71.41 71.51 71.98 71.36 70.50 70.45 69.49 69.69 69.43 69.45 70.75
41.75 38.12 43.98 49.67 49.33 48.57 43.75 45.98 39.92 37.71 32.04 30.89 35.99 37.99 39.93 45.38 48.94 51.54 54.22 55.45 57.06 58.62 60.05 60.59 62.02 61.98 61.75 63.46 63.69 65.18 67.40 67.46 68.65 72.88 72.36 72.18 72.00 71.71 71.04 70.62 69.95 70.09 69.71 70.06
42.92 40.62 41.95 45.40 42.82 41.99 41.86 40.80 40.93 38.59 36.47 32.78 31.50 36.75 44.72 47.67 50.98 51.69 53.66 53.98 58.31 59.95 61.94 62.12 62.42 63.17 62.79 63.01 62.34 64.64 64.96 64.43 65.77 68.83 73.38 72.61 72.25 72.30 71.93 71.48 71.54 70.57 71.02 70.72
43.14 38.91 36.39 40.44 45.57 47.47 43.48 42.61 39.83 35.42 34.31 35.55 34.99 36.89 49.25 51.87 52.46 54.50 54.07 53.77 57.25 62.80 60.35 59.97 60.83 62.49 63.80 60.80 62.62 63.05 64.54 65.24 66.33 67.85 71.07 73.18 72.70 72.90 72.20 72.00 71.88 73.01 71.46 71.75
44.45 37.91 33.90 37.51 41.40 45.12 43.16 43.58 41.70 38.96 36.71 36.08 33.41 36.54 50.14 51.30 52.47 52.94 52.85 53.44 56.71 59.44 60.32 60.12 58.88 61.01 62.70 63.79 63.78 65.51 66.27 66.05 66.43 66.78 71.37 73.12 72.99 72.37 72.57 72.65 72.54 71.50 72.09 72.12
49.24 37.35 36.79 34.25 38.54 41.98 41.33 44.16 43.97 39.02 33.79 34.61 36.58 39.21 45.34 50.10 50.59 51.99 54.25 54.07 55.43 59.11 60.09 59.03 58.04 59.85 59.89 61.27 62.30 62.57 64.77 65.96 65.10 67.25 70.12 70.23 66.61 67.90 67.13 67.50 69.69 71.85 71.82 71.33
43.49 39.00 39.73 41.36 43.60 44.29 44.28 44.87 44.81 42.40 41.45 37.29 41.33 43.57 47.45 50.28 51.65 52.73 55.32 56.73 57.46 57.47 58.08 58.15 59.31 60.79 59.87 60.75 61.49 62.70 63.03 66.09 63.79 65.43 65.76 65.49 66.06 66.17 66.78 66.80 66.60 67.16 67.45 69.85
41.23 38.06 37.92 38.71 43.61 43.90 42.43 44.89 47.59 48.25 49.26 46.87 47.29 45.50 51.86 53.97 54.56 55.37 55.67 56.48 58.02 59.02 59.99 59.30 61.14 61.14 60.73 61.02 62.72 63.51 64.13 65.92 64.95 64.12 64.34 65.22 65.48 65.60 65.83 65.63 66.33 65.35 64.95 65.96
40.65 38.70 35.96 36.69 40.21 40.56 36.41 42.01 47.38 47.37 49.68 46.30 42.21 45.10 50.39 50.68 54.11 54.54 54.72 55.88 57.46 59.78 60.78 61.75 61.90 61.75 62.93 62.86 62.69 64.36 64.33 65.34 64.53 63.17 63.49 63.66 63.92 64.05 64.36 64.82 64.68 64.28 63.40 64.75
38.92 35.93 35.51 33.41 34.81 29.28 39.26 50.84 50.72 48.92 49.55 49.50 48.70 49.90 52.61 52.84 54.54 54.09 54.99 54.92 57.26 59.84 60.96 61.05 62.23 63.40 63.78 62.28 62.51 62.90 63.65 64.44 64.93 64.02 63.00 62.62 62.71 62.37 62.83 64.54 64.84 64.79 64.65 64.67
40.07 36.38 33.46 32.63 31.95 37.95 46.65 48.90 47.92 45.03 44.72 52.15 50.62 51.77 52.80 54.14 54.19 52.72 55.08 57.75 59.30 59.23 60.11 61.21 61.89 61.18 59.81 60.98 61.67 61.51 61.88 62.33 62.59 63.06 63.46 64.99 64.45 62.59 61.99 61.74 62.30 62.49 62.11 62.43
44.07 39.51 37.30 37.28 34.35 33.53 41.76 51.08 54.24 51.84 41.42 52.70 52.29 49.45 49.21 52.49 45.76 48.64 53.82 56.02 56.60 59.53 60.23 60.41 60.22 59.26 58.64 58.42 59.40 59.02 58.91 59.27 59.29 59.93 60.98 61.55 62.86 63.17 62.64 62.73 62.15 63.14 64.54 65.42
39.98 40.48 39.03 38.32 36.96 41.00 47.75 52.14 54.34 40.02 40.49 51.06 50.30 49.43 49.67 49.03 50.97 53.07 56.06 54.71 56.75 58.86 60.80 60.97 59.41 58.45 57.30 57.89 57.46 56.36 56.14 56.68 57.82 59.03 59.39 59.51 59.49 59.90 60.32 60.72 61.43 61.66 61.57 61.86
39.91 38.35 37.63 38.63 36.48 35.59 51.10 51.83 45.82 47.37 48.93 50.83 51.09 50.94 50.90 52.11 54.56 55.99 56.06 55.31 57.40 59.45 61.31 60.88 58.92 57.54 58.03 57.73 56.90 55.92 56.50 57.16 57.89 57.75 58.15 58.51 58.90 59.02 58.69 57.98 58.86 59.59 60.42 61.77
38.56 42.42 39.42 41.32 40.66 48.62 48.31 50.11 51.06 50.74 50.77 52.24 51.85 53.99 53.97 54.15 55.74 55.25 56.30 56.14 57.44 60.51 60.55 60.84 59.00 57.94 58.06 58.05 57.75 57.10 57.24 57.91 57.83 57.35 56.48 57.64 57.55 58.68 58.44 57.18 55.94 57.89 58.53 58.85
43.75 46.66 44.01 44.38 47.19 48.29 50.41 52.10 53.65 54.20 53.54 54.54 55.11 55.59 56.36 55.69 56.49 54.33 55.54 55.74 56.46 59.18 59.66 59.42 58.35 57.65 57.38 57.69 57.46 56.87 57.43 57.19 56.77 56.04 55.47 54.64 54.52 55.21 56.84 57.99 57.16 55.03 56.06 56.92
42.71 46.37 45.72 44.14 46.79 48.49 50.09 52.43 53.99 55.17 55.95 56.24 56.82 57.04 56.40 55.74 55.82 55.16 55.66 56.46 56.72 58.43 59.16 58.45 57.75 57.48 56.97 57.26 56.78 57.24 56.67 55.29 54.85 54.83 55.07 53.65 53.36 53.98 54.69 54.57 55.80 56.02 53.55 53.17
43.36 44.35 42.61 42.06 46.59 45.88 46.82 53.46 54.24 53.43 54.11 55.23 55.39 54.71 55.23 55.07 55.76 56.54 55.16 57.52 57.53 57.79 58.41 57.00 56.54 55.82 55.94 56.74 56.78 57.71 57.10 55.76 54.48 53.99 53.75 52.65 52.47 53.32 53.95 53.86 52.46 50.19 48.19 45.19
MSLP
1005.30 1006.28 1006.54 1006.36 1006.70 1006.63 1006.89 1007.10 1006.98 1005.73 1004.49 1004.86 1003.78 1003.38 1002.25 1001.60 1001.36 1000.87 1000.70 1001.05 1001.24 1001.18 1000.20 1000.35 1002.55 1003.65 1004.04 1004.64 1004.87 1005.34 1006.16 1006.87 1008.00 1008.63 1009.14 1009.79 1009.97 1010.52 1010.78 1010.87 1010.93 1011.43 1012.08 1012.61
1005.87 1005.94 1005.29 1005.64 1005.84 1006.22 1006.54 1006.86 1006.41 1005.63 1004.45 1004.74 1004.10 1003.36 1002.39 1001.87 1001.66 1001.22 1000.88 1001.31 1001.31 1000.97 1001.20 1001.42 1002.09 1002.63 1003.09 1003.94 1004.40 1004.65 1005.15 1005.76 1006.66 1007.58 1008.08 1008.59 1009.29 1009.74 1010.14 1010.52 1010.72 1010.89 1011.28 1011.81
1005.49 1004.74 1004.34 1004.99 1005.00 1005.39 1005.53 1006.03 1005.67 1005.50 1004.75 1004.68 1004.51 1004.09 1003.49 1002.33 1002.64 1002.91 1002.38 1001.94 1001.84 1001.79 1001.60 1001.38 1001.74 1001.66 1001.80 1002.59 1003.32 1003.87 1004.16 1005.03 1005.89 1006.84 1007.68 1008.20 1008.75 1009.39 1009.73 1010.02 1010.32 1010.58 1010.73 1011.18
1004.84 1004.19 1004.22 1004.05 1004.12 1004.28 1004.77 1004.35 1004.69 1005.28 1005.35 1005.67 1005.42 1005.97 1005.21 1004.59 1004.04 1004.94 1004.52 1004.00 1003.58 1003.04 1002.46 1002.21 1001.36 1001.05 1001.29 1001.26 1002.34 1003.27 1004.43 1004.34 1005.43 1006.39 1007.07 1007.12 1007.28 1007.92 1008.41 1008.94 1009.67 1010.12 1010.35 1010.67
1004.26 1003.93 1003.71 1003.55 1003.51 1003.50 1004.04 1004.09 1004.91 1005.13 1006.09 1006.46 1006.58 1007.04 1006.23 1006.03 1005.75 1006.23 1006.65 1005.88 1004.90 1004.20 1003.84 1002.93 1002.46 1001.38 1001.23 1001.51 1002.09 1002.70 1003.49 1004.21 1004.52 1005.22 1006.04 1006.91 1006.66 1006.97 1007.46 1008.35 1009.05 1009.56 1009.84 1010.11
1003.92 1003.49 1003.42 1003.33 1003.31 1003.47 1003.74 1004.35 1005.55 1006.73 1007.23 1007.81 1007.28 1007.44 1007.25 1007.05 1006.95 1006.59 1006.67 1006.68 1006.21 1005.59 1004.13 1003.43 1002.53 1002.09 1001.74 1001.77 1001.35 1002.04 1002.86 1003.67 1004.27 1004.59 1004.94 1005.66 1006.60 1006.67 1006.97 1007.60 1008.51 1009.06 1009.41 1009.71
1004.36 1003.69 1003.48 1003.40 1003.40 1003.53 1004.38 1006.00 1007.43 1008.28 1008.78 1008.95 1007.77 1007.81 1007.05 1006.72 1006.87 1006.91 1006.87 1006.50 1006.00 1005.55 1005.19 1004.51 1003.65 1003.11 1002.16 1001.58 1000.61 1000.87 1001.69 1002.73 1003.63 1004.39 1005.26 1006.17 1006.77 1007.50 1007.95 1007.81 1008.00 1008.69 1009.09 1009.29
1005.39 1004.65 1004.12 1004.08 1004.39 1004.90 1005.70 1007.06 1008.58 1009.41 1009.72 1009.14 1007.98 1007.71 1006.71 1006.45 1006.73 1006.98 1006.89 1006.63 1006.29 1005.62 1005.87 1005.10 1004.17 1004.15 1003.47 1002.30 1001.10 1000.65 1001.07 1001.90 1002.72 1003.67 1004.53 1005.09 1005.94 1006.51 1007.27 1007.65 1007.93 1008.23 1008.34 1008.41
1005.89 1005.44 1004.85 1004.56 1004.54 1005.12 1006.28 1007.23 1008.04 1009.26 1010.00 1009.71 1008.78 1007.72 1006.89 1006.47 1007.01 1007.15 1007.12 1006.90 1006.44 1006.14 1005.68 1005.51 1005.13 1004.84 1004.80 1003.70 1002.85 1001.29 1001.09 1001.92 1002.27 1002.80 1003.85 1004.35 1004.92 1005.57 1006.18 1006.81 1007.15 1007.39 1007.69 1007.95
1006.39 1006.60 1006.10 1005.60 1005.41 1005.89 1006.46 1007.34 1008.45 1009.76 1010.73 1010.74 1009.74 1008.47 1007.39 1006.92 1007.25 1007.42 1007.36 1007.19 1006.67 1006.16 1005.63 1005.44 1005.31 1005.28 1005.05 1004.24 1003.64 1003.14 1002.25 1001.90 1002.21 1002.66 1003.03 1003.58 1003.93 1004.54 1004.98 1005.51 1005.68 1006.03 1006.33 1006.98
1006.58 1007.44 1007.41 1007.06 1007.14 1007.16 1007.57 1008.11 1009.40 1010.54 1011.26 1011.44 1010.77 1009.16 1007.60 1007.31 1007.26 1007.51 1007.43 1007.37 1007.24 1006.63 1005.99 1005.50 1004.93 1004.64 1004.69 1004.38 1004.33 1003.79 1003.67 1002.82 1001.92 1001.25 1002.02 1002.64 1003.08 1003.40 1003.87 1004.33 1005.04 1005.41 1005.81 1006.14
1007.27 1008.23 1008.64 1008.27 1007.64 1007.62 1007.94 1008.67 1009.64 1011.11 1011.75 1011.69 1011.12 1009.28 1007.73 1007.48 1007.54 1007.76 1007.77 1007.68 1007.27 1006.69 1006.16 1005.71 1005.23 1004.48 1004.00 1004.13 1004.15 1003.86 1003.25 1002.68 1002.62 1001.52 1000.69 1001.10 1001.85 1002.26 1002.77 1003.37 1004.15 1005.00 1005.49 1005.88
1007.57 1008.73 1009.32 1009.08 1008.67 1008.23 1008.37 1008.89 1009.44 1010.49 1011.44 1011.49 1011.24 1009.30 1007.93 1007.89 1007.90 1007.96 1008.03 1007.61 1007.21 1006.84 1006.57 1006.17 1005.18 1004.84 1004.43 1004.00 1003.83 1003.60 1003.16 1002.86 1002.41 1002.00 1000.86 1000.03 1001.13 1001.58 1002.48 1002.81 1003.63 1004.58 1004.81 1005.04
1007.74 1009.79 1010.14 1010.20 1009.70 1009.20 1008.90 1008.88 1009.03 1009.92 1011.04 1010.68 1010.23 1009.03 1008.31 1008.10 1008.07 1007.96 1007.93 1007.76 1007.35 1006.95 1006.55 1006.23 1005.46 1004.92 1004.65 1004.00 1003.83 1003.67 1003.23 1002.81 1001.98 1001.24 1001.05 1000.15 1000.58 1001.39 1002.84 1003.27 1003.79 1004.18 1004.43 1004.66
1008.92 1010.17 1010.30 1010.07 1009.70 1009.29 1008.93 1008.74 1008.79 1009.41 1009.60 1010.15 1009.13 1008.96 1008.31 1008.31 1008.11 1007.91 1008.04 1007.83 1007.35 1006.70 1006.68 1006.21 1005.73 1005.17 1004.76 1003.99 1003.36 1002.99 1003.11 1002.42 1002.79 1001.35 1001.44 1001.09 1000.85 1002.12 1003.45 1003.57 1003.88 1005.12 1005.66 1004.80
1010.02 1010.59 1010.75 1010.37 1009.54 1009.02 1008.62 1008.34 1008.46 1008.64 1008.83 1009.02 1008.93 1008.61 1008.10 1007.93 1007.92 1007.85 1007.83 1007.59 1007.20 1006.52 1006.08 1005.81 1005.59 1005.32 1004.88 1004.20 1003.63 1002.98 1003.07 1002.78 1002.95 1001.39 1001.28 1002.04 1001.40 1003.08 1004.00 1003.98 1003.71 1003.39 1005.08 1005.01
1010.79 1011.12 1011.55 1010.75 1009.91 1009.39 1008.77 1007.80 1007.78 1008.15 1008.41 1008.83 1009.02 1008.44 1008.27 1007.94 1007.98 1007.76 1007.68 1007.64 1007.35 1006.62 1006.00 1005.70 1005.53 1005.43 1005.12 1004.73 1004.35 1003.34 1002.84 1003.02 1002.43 1002.65 1001.32 1001.43 1001.97 1005.44 1003.52 1003.45 1004.27 1003.26 1004.87 1004.53
1010.64 1011.50 1011.57 1011.19 1010.61 1009.89 1008.43 1007.92 1007.92 1008.36 1008.36 1008.53 1008.72 1008.84 1008.74 1008.31 1007.93 1007.76 1007.69 1007.78 1007.29 1006.58 1005.83 1005.64 1005.72 1005.38 1005.41 1005.26 1004.46 1004.17 1003.94 1003.45 1002.60 1002.15 1001.31 1001.40 1003.93 1005.25 1005.22 1004.24 1004.90 1004.82 1005.17 1005.45
1010.60 1011.44 1011.97 1011.84 1011.08 1009.78 1008.93 1008.28 1008.42 1008.62 1008.64 1008.69 1008.91 1008.87 1008.60 1008.26 1008.06 1007.45 1007.32 1007.34 1007.15 1006.50 1006.03 1005.71 1005.60 1005.83 1005.77 1005.64 1005.40 1005.18 1004.40 1003.87 1003.48 1003.43 1003.43 1003.75 1004.44 1004.41 1004.20 1004.64 1005.19 1005.34 1005.26 1005.17
1011.01 1011.38 1012.05 1012.27 1011.49 1010.48 1009.38 1008.63 1008.58 1009.40 1009.21 1008.67 1008.92 1008.73 1008.54 1008.35 1008.16 1007.55 1007.00 1006.97 1006.71 1006.41 1006.04 1005.87 1005.81 1006.20 1005.81 1005.95 1005.71 1005.74 1005.50 1004.79 1004.76 1004.81 1004.52 1004.83 1004.80 1005.09 1004.87 1005.00 1005.27 1005.08 1004.99 1004.70
1011.93 1012.28 1012.46 1012.15 1011.37 1010.16 1008.87 1008.63 1008.43 1009.79 1009.24 1008.35 1008.59 1008.31 1008.30 1008.31 1007.86 1007.18 1006.69 1006.65 1006.50 1006.24 1006.29 1006.13 1006.07 1006.11 1006.08 1006.35 1006.37 1006.18 1006.07 1005.57 1005.56 1005.68 1005.46 1005.16 1005.14 1005.18 1005.02 1005.25 1005.03 1004.54 1004.35 1004.03
1012.24 1012.30 1012.38 1012.12 1011.22 1009.92 1008.37 1008.81 1008.91 1008.12 1008.08 1008.08 1008.17 1007.97 1007.96 1007.34 1007.12 1007.08 1006.62 1006.50 1006.31 1006.29 1006.43 1006.46 1006.43 1006.60 1006.43 1006.51 1006.53 1006.39 1006.37 1006.22 1006.17 1005.94 1005.59 1005.13 1004.72 1004.89 1004.96 1005.12 1004.99 1004.32 1003.81 1003.83
1011.99 1011.62 1011.65 1011.32 1009.93 1008.62 1008.05 1007.97 1007.45 1007.46 1007.79 1007.83 1007.80 1007.44 1007.46 1007.15 1006.57 1006.65 1006.65 1006.47 1006.21 1006.15 1005.58 1006.63 1006.76 1006.72 1006.61 1006.97 1006.39 1006.52 1006.56 1006.66 1006.43 1006.08 1005.91 1005.70 1005.47 1005.40 1005.15 1005.18 1004.93 1004.65 1004.26 1004.32
1011.23 1011.07 1011.01 1010.47 1008.80 1008.31 1007.80 1007.36 1007.30 1007.32 1007.40 1007.23 1007.25 1007.09 1006.95 1006.83 1006.42 1006.54 1006.61 1006.49 1006.49 1006.55 1006.38 1006.58 1006.88 1007.05 1006.85 1007.01 1006.73 1006.73 1006.79 1006.72 1006.51 1006.65 1006.47 1006.28 1006.00 1005.65 1005.69 1005.53 1005.22 1005.41 1005.50 1005.52
1011.14 1010.74 1010.19 1009.64 1008.57 1008.24 1007.71 1007.35 1007.18 1007.17 1007.21 1007.16 1006.93 1006.99 1006.94 1006.84 1006.48 1006.61 1006.57 1006.56 1006.58 1006.57 1006.44 1006.86 1007.04 1007.24 1007.23 1007.12 1007.02 1006.72 1007.01 1006.77 1006.66 1006.79 1006.77 1006.72 1006.50 1006.29 1006.31 1006.32 1006.26 1005.88 1005.95 1006.25
1010.38 1009.91 1009.70 1008.95 1008.12 1008.00 1007.55 1007.11 1007.15 1007.31 1007.38 1007.34 1006.97 1006.84 1006.71 1006.79 1006.91 1006.68 1006.74 1006.56 1006.61 1006.74 1006.80 1006.88 1007.01 1007.04 1007.05 1006.83 1006.66 1006.51 1006.51 1006.82 1006.72 1006.85 1006.86 1006.92 1006.48 1006.45 1006.33 1006.34 1006.70 1006.21 1005.95 1006.52
Wind_Speed
3 4 7 11 9 7 5 5 6 10 17 1 10 8 8 8 3 4 5 8 15 19 24 25 16 12 14 19 19 19 18 17 12 11 10 8 9 7 6 7 10 10 9 9
6 5 11 3 6 7 7 4 10 10 12 7 8 9 7 6 4 4 5 3 9 14 8 8 9 14 17 14 19 20 21 20 16 13 11 8 8 6 7 7 8 9 10 9
6 11 4 3 7 4 4 6 6 10 3 1 2 10 9 11 5 12 9 8 9 3 6 9 12 18 20 21 20 21 21 20 18 17 10 3 4 3 4 6 8 9 11 10
6 5 2 6 6 6 1 7 7 6 4 4 3 4 6 9 9 17 12 11 9 11 12 11 9 15 18 22 17 15 17 19 17 17 14 17 12 12 10 8 6 6 9 9
8 3 7 6 5 4 7 1 3 3 4 3 4 6 8 7 9 7 6 3 8 8 8 11 13 6 5 10 14 13 15 17 19 19 17 14 14 11 9 8 8 8 7 9
8 3 3 3 2 4 3 5 8 5 3 5 4 5 6 3 3 8 3 4 1 7 9 9 9 9 8 10 13 13 14 14 16 18 19 19 17 13 9 8 7 7 5 7
7 2 3 3 8 7 13 8 5 5 6 6 4 2 8 3 3 3 7 8 8 3 5 9 9 11 12 13 14 15 16 16 15 15 14 11 11 10 7 8 8 7 6 6
3 6 3 6 4 2 4 6 5 4 4 7 2 4 5 6 2 4 7 7 6 7 4 4 7 12 13 14 8 14 16 15 15 13 14 11 11 8 6 7 8 7 8 8
2 5 3 4 2 4 5 4 5 3 3 2 3 2 6 2 1 3 7 7 9 9 8 5 7 5 11 8 12 4 10 9 13 14 12 13 12 12 11 9 9 8 7 7
2 2 3 6 5 5 4 3 5 5 3 3 5 3 5 5 2 1 6 7 9 10 8 7 5 3 7 6 7 10 6 11 8 10 13 12 13 13 13 11 14 14 12 9
4 4 6 2 2 4 5 5 4 4 4 3 1 7 4 2 3 4 7 6 8 9 7 7 8 3 3 4 3 1 5 3 7 8 13 15 14 16 15 15 13 12 11 10
2 5 2 4 3 5 1 5 5 6 7 2 3 8 4 3 1 3 7 7 7 7 6 7 7 7 5 2 5 7 5 3 6 8 11 17 16 17 16 16 15 11 10 8
1 2 4 9 7 6 4 1 3 3 3 5 3 7 3 3 5 5 7 9 7 7 7 8 8 6 4 4 4 5 3 5 6 10 10 16 16 14 14 14 11 8 10 11
9 3 6 6 6 3 3 4 2 5 3 5 7 8 5 6 7 6 7 8 9 9 9 7 8 7 6 4 1 4 4 4 7 4 3 10 12 9 8 8 4 5 8 8
5 2 5 6 7 4 5 8 4 3 7 6 7 5 5 5 8 6 6 7 9 8 6 8 7 8 7 8 6 6 5 6 3 9 10 11 16 14 8 8 11 10 12 5
3 3 2 5 6 7 6 9 6 5 3 4 4 7 3 6 6 5 6 6 7 7 5 6 6 6 8 7 8 8 7 7 4 8 11 7 12 6 3 4 8 8 7 8
3 5 3 10 5 5 7 6 5 4 4 4 5 6 5 8 6 7 6 5 7 7 6 6 2 3 5 6 5 8 9 6 6 5 9 9 11 4 1 1 6 3 12 13
5 3 4 5 2 4 7 1 3 3 6 5 6 4 7 7 6 7 5 4 10 7 6 4 4 1 3 3 6 6 6 7 9 9 9 13 5 5 3 4 5 3 4 11
7 5 1 3 4 4 2 3 2 2 6 2 4 4 6 6 4 7 4 4 8 8 3 1 5 3 4 5 5 5 7 7 9 9 9 6 3 2 3 1 3 5 4 6
7 5 4 1 2 4 3 1 3 3 6 6 6 8 8 4 2 5 3 4 7 6 2 3 5 2 6 5 5 6 5 7 7 6 6 4 4 3 3 1 4 4 5 5
4 4 2 1 2 7 4 2 6 1 8 4 5 8 4 4 6 5 7 5 3 5 2 2 5 5 3 4 4 6 4 7 4 3 3 4 4 3 4 1 2 3 4 2
3 3 2 2 1 5 4 3 5 8 3 4 5 8 8 9 7 6 7 7 6 5 3 3 4 4 4 5 4 6 6 3 4 4 5 6 6 6 5 5 4 4 3 4
3 7 4 8 7 4 3 8 7 4 5 4 4 7 8 10 9 4 3 4 3 3 4 4 4 4 4 1 4 6 3 3 4 6 6 6 6 5 6 6 6 4 6 4
4 3 3 3 5 6 6 6 6 3 6 7 9 8 4 7 8 3 3 1 2 2 1 5 4 3 4 1 4 4 3 4 6 6 6 6 7 7 7 5 5 5 5 4
6 3 4 6 7 5 6 3 2 5 5 5 5 3 4 4 5 3 4 3 1 0 3 2 4 3 4 2 2 3 3 4 5 4 4 5 4 5 4 3 3 3 3 2
4 6 4 7 7 5 6 5 2 3 1 4 1 3 2 1 3 3 2 0 2 3 2 2 2 3 2 3 4 4 5 4 4 4 4 4 4 4 3 4 4 4 4 5
Wind_Direction
1 91 223 227 201 208 196 190 234 271 282 229 267 277 286 302 296 313 207 191 195 205 211 207 214 210 183 193 193 188 188 188 189 189 184 200 198 190 193 201 194 183 188 186
21 250 244 239 209 207 204 229 265 278 263 142 271 289 287 285 325 282 250 226 222 230 248 217 194 194 206 190 197 192 194 187 188 192 194 190 194 201 197 189 204 195 188 183
161 246 320 240 267 251 207 180 238 217 290 203 7 327 352 329 72 40 355 6 16 267 244 213 192 201 200 200 190 200 191 191 190 191 187 172 120 93 162 196 197 201 198 191
211 269 237 281 232 148 313 209 211 225 73 294 73 277 339 329 337 44 25 23 4 359 352 338 249 226 206 207 207 196 201 188 188 188 192 193 192 192 205 197 194 186 189 193
253 293 336 350 281 175 246 240 278 67 97 38 7 87 262 1 349 25 26 44 349 344 343 336 333 25 208 209 207 200 191 193 188 188 194 204 204 200 184 194 177 188 188 191
249 230 135 235 308 84 282 24 41 52 81 30 248 121 293 304 263 304 24 30 142 302 337 328 330 330 318 315 220 186 183 197 193 193 196 196 212 205 192 179 180 184 194 200
322 5 358 23 20 350 44 46 352 7 8 231 157 51 231 260 271 252 297 338 329 355 341 326 333 330 318 314 216 180 176 183 187 192 194 199 207 225 230 202 194 179 185 199
265 334 30 334 120 242 34 115 156 253 216 254 127 195 248 195 200 293 304 306 302 351 301 313 320 325 317 324 267 178 172 170 175 174 187 188 197 198 202 203 210 207 209 208
126 301 337 21 18 98 320 6 200 157 0 52 285 346 318 250 344 351 314 323 315 302 312 340 327 315 307 322 329 115 143 151 162 165 182 192 196 193 197 186 201 203 204 213
172 357 359 318 36 23 104 267 7 8 4 316 307 273 241 268 239 333 318 321 312 301 318 316 335 313 296 301 329 343 91 120 128 166 183 200 197 197 200 196 201 200 205 202
125 112 280 82 86 278 4 25 20 114 125 167 288 278 249 262 263 305 292 318 305 303 319 324 310 331 269 256 211 240 309 256 150 154 184 200 202 198 202 211 215 210 205 193
35 135 194 249 277 291 165 111 112 103 299 239 173 266 274 266 313 253 289 300 291 303 307 308 300 316 341 340 235 247 244 304 297 278 182 189 199 202 205 209 211 205 201 190
222 6 13 350 356 1 90 101 137 109 75 231 176 268 215 334 332 291 285 299 300 278 280 305 317 329 327 336 311 328 329 310 248 269 234 182 194 201 213 212 206 193 186 200
87 99 149 190 219 232 297 304 311 130 147 236 225 273 267 263 270 278 281 281 290 279 287 300 303 305 311 305 306 101 346 313 305 251 295 119 90 99 75 62 64 175 190 191
93 196 192 226 240 229 245 286 283 233 233 205 286 217 264 275 279 273 264 272 271 269 260 280 309 312 325 333 337 35 10 5 343 104 97 102 100 97 93 83 76 18 340 255
20 260 215 262 258 265 269 264 257 245 262 267 282 279 235 277 274 292 293 308 316 300 252 253 283 334 313 340 338 357 4 9 310 78 96 110 71 49 128 156 128 147 308 327
192 156 141 272 252 328 308 224 189 230 205 190 241 239 323 305 294 270 290 303 299 296 280 234 314 341 338 334 322 359 8 341 33 49 64 74 81 297 1 140 224 217 244 265
196 175 159 241 99 240 248 357 110 236 258 234 271 305 298 288 283 278 263 272 288 294 289 292 171 162 38 12 21 22 10 9 19 17 33 54 86 137 166 157 178 181 230 233
188 137 209 175 192 296 296 235 163 178 284 208 262 269 268 301 308 284 232 239 277 286 281 342 71 59 64 62 57 31 40 35 41 39 40 47 59 37 52 116 207 218 210 249
71 73 118 121 182 239 243 105 89 80 282 213 222 266 270 299 322 262 262 286 287 305 269 103 89 57 74 53 56 68 47 50 40 24 36 52 82 113 127 208 230 232 210 220
359 357 134 196 224 285 239 159 115 310 243 206 217 249 247 217 212 261 305 287 271 280 194 86 96 88 75 66 68 72 59 58 33 23 47 53 54 67 55 13 274 255 244 3
207 160 212 110 214 294 210 39 169 217 263 250 249 248 268 264 260 246 276 278 306 322 135 151 106 112 97 84 79 62 52 13 24 32 28 23 34 27 29 24 347 8 51 100
278 186 196 179 223 256 229 225 242 183 231 268 242 263 247 270 276 270 271 289 309 163 156 141 154 130 89 89 81 65 4 8 26 38 21 12 31 31 23 25 10 18 31 55
281 162 219 38 267 257 261 260 246 233 228 264 267 264 249 254 275 198 177 233 289 202 118 132 136 141 97 56 72 89 50 59 72 55 37 15 17 15 17 7 39 30 28 40
229 158 214 256 282 267 271 244 250 259 288 320 317 343 316 303 295 165 179 192 163 166 108 71 124 144 147 140 84 68 66 64 62 54 34 34 15 26 16 18 349 69 67 51
203 224 174 230 238 196 248 239 277 338 285 307 339 329 23 64 248 211 175 334 80 102 125 131 92 111 57 37 35 30 30 59 64 37 19 2 10 11 44 39 357 53 73 79